Regional Weather Roundup
Issued by NWS

Home | Current Version | Previous Version | Graphics & Text | Print | Product List | Glossary On
Versions: 1 2 3 4 5 6 7 8 9 10 11 12 13 14 15 16 17 18 19 20 21 22 23 24 25 26 27 28 29 30 31 32 33 34 35 36 37 38 39 40 41 42 43 44 45 46 47 48 49 50
431
ASUS45 KBOU 311607
RWRCO

WEATHER ROUNDUP FOR COLORADO
NATIONAL WEATHER SERVICE DENVER/BOULDER CO
1000 AM MDT TUE MAY 31 2016

NOTE: "FAIR" INDICATES FEW OR NO CLOUDS BELOW 12000 FEET WITH NO
SIGNIFICANT WEATHER AND/OR OBSTRUCTIONS TO VISIBILITY.

COZ001>005-013-030-031-311700-
...NORTHWEST COLORADO...

CITY           SKY/WX    TMP DP  RH WIND       PRES   REMARKS
CRAIG          FAIR      58  41  53 W5        30.16S
HAYDEN         FAIR      55  36  47 CALM      30.16S
MEEKER         NOT AVBL
MOUNT WERNER   NOT AVBL
STEAMBOAT SPGS PTSUNNY   54  35  49 SW3       30.16S
WALDEN         NOT AVBL
$$

COZ006>008-011-311700-
...WEST CENTRAL VALLEYS...

CITY           SKY/WX    TMP DP  RH WIND       PRES   REMARKS
GRAND JUNCTION FAIR      68  34  28 S10       30.04F
MONTROSE       FAIR      63  35  35 N8        30.10F
EAGLE          NOT AVBL
RIFLE          FAIR      61  35  37 CALM      30.09F
DELTA          FAIR      66  34  30 SW3       30.07F
NUCLA          FAIR      63  34  34 NW3       30.11S
$$

COZ017>023-064>068-311700-
...SOUTHWEST COLORADO...

CITY           SKY/WX    TMP DP  RH WIND       PRES   REMARKS
DURANGO        FAIR      67  27  22 CALM      30.09F
CORTEZ         FAIR      66  29  24 SW5       30.06S
PAGOSA SPRINGS FAIR      65  20  18 CALM      30.16S
TELLURIDE      FAIR      58  20  23 W3        30.24S
WOLF CREEK PAS FAIR      45  19  36 W8        30.41S
$$

COZ009-010-012-014-032>034-037-058>063-311700-
...CENTRAL COLORADO...

CITY           SKY/WX    TMP DP  RH WIND       PRES   REMARKS
ASPEN          FAIR      58  33  39 N7        30.15F
BUENA VISTA    FAIR      57  29  34 CALM      30.20F
COPPER MTN     NOT AVBL
BERTHOUD PASS  PTSUNNY   32  23  69 W16       30.37F WCI  21
COTTONWOOD PAS FAIR      54  28  37 E6        30.28F
GUNNISON       FAIR      52  32  46 N3        30.22F
KREMMLING      FAIR      50  36  57 CALM      30.20F
LEADVILLE      FAIR      49  22  34 S8        30.26F
MONARCH PASS   FAIR      41  23  48 W14       30.48S
SALIDA         FAIR      57  33  40 SE6       30.27F
SUNLIGHT       FAIR      46  32  57 CALM      30.35S
WILKERSON PASS FAIR      45  32  61 SW7       30.37F
$$

COZ069>075-311700-
...SAN LUIS VALLEY/SANGRE DE CRISTO MOUNTAINS...

CITY           SKY/WX    TMP DP  RH WIND       PRES   REMARKS
ALAMOSA        FAIR      59  32  36 VRB3      30.16F
LA VETA PASS   FOG       39  36  87 NE10      30.31S VSB 1/4
SAGUACHE       FAIR      61  27  27 CALM      30.17F
$$

COZ035-036-038>040-311700-
...NORTHERN COLORADO FRONT RANGE...

CITY           SKY/WX    TMP DP  RH WIND       PRES   REMARKS
DENVER INTL AP CLOUDY    52  44  74 CALM      30.15F
DMNS CITY PARK   N/A     57  41  56 N8G14     30.13F
AURORA         CLOUDY    52  44  73 SE3       30.16F
FRONT RANGE AP CLOUDY    48  45  87 E3        30.16F
ERIE MUNI ARPT FAIR      55  39  55 NE5       30.14F
BOULDER MUN AP FAIR      55  39  54 E5        30.14F
CENTENNIAL     PTSUNNY   53  43  68 SW6       30.15F
BROOMFIELD     NOT AVBL
FORT COLLINS   FAIR      55  39  54 SE3       30.15F
LONGMONT       FAIR      58  43  55 NE3       30.15F
$$

COZ041-046-047-076>085-087-088-311700-
...PIKES PEAK/PALMER DIVIDE AND SOUTHERN FOOTHILLS...

CITY           SKY/WX    TMP DP  RH WIND       PRES   REMARKS
COLO. SPRINGS  FAIR      59  43  55 VRB7      30.17F
A. F. ACADEMY  FAIR      57  41  54 VRB3      30.16F
SCHRIEVER AFB  NOT AVBL
ELLICOTT       NOT AVBL
FALCON         FAIR      55  44  64 E7        30.20S
FORT CARSON    FAIR      60  44  56 VRB3      30.15F
LIMON          CLOUDY    55  45  68 NE10      30.15F
MONUMENT HILL  CLOUDY    46  43  87 CALM      30.20F
TRINIDAD       CLOUDY    57  45  64 N12       30.17R
$$

COZ042>045-048>051-090-091-311700-
...NORTHEAST COLORADO...

CITY           SKY/WX    TMP DP  RH WIND       PRES   REMARKS
GREELEY ARPT   CLOUDY    55  39  54 S3        30.16F
AKRON          CLOUDY    58  38  47 E6        30.13F
BURLINGTON     FAIR      61  44  53 NE12      30.11F
WRAY           CLOUDY    61  41  48 NE10G17   30.13F
STERLING       CLOUDY    59  45  58 NE6       30.12S
HOLYOKE        FAIR      59  46  63 N7        30.13S
FORT MORGAN    CLOUDY    56  43  60 SW5       30.14F
$$

COZ086-089-092>099-311700-
...SOUTHEAST COLORADO...

CITY           SKY/WX    TMP DP  RH WIND       PRES   REMARKS
PUEBLO         CLOUDY    63  47  55 E10       30.13F
LA JUNTA       PTSUNNY   64  49  57 NE14G24   30.10S
LAMAR          CLOUDY    65  51  60 NE13      30.06F
SPRINGFIELD      N/A     64  54  69 N5        30.06S
$$




USA.gov is the U.S. government's official web portal to all federal, state and local government web resources and services.